FW7729 Weather Reports


Display with metric or nautical units.
time (UTC)temp
F
wind
direction
speed
MPH
gust
MPH
rain 1hr
in
rain 24hr
in
rain mn
in
humidity
%
barometer
mb
20260904002706 83 220 0.0 0.0 0.00 0.00 0.00 96 1013.7
20260904001602 83 220 0.0 0.0 0.00 0.00 0.00 95 1013.7
20260904000457 84 220 0.0 0.0 0.00 0.00 0.00 94 1013.8
20260903235923 84 220 0.0 0.0 0.00 0.00 0.00 94 1013.7
20260903234819 84 220 0.0 0.0 0.00 0.00 0.00 93 1013.5
20260903234245 84 220 0.0 0.0 0.00 0.00 0.00 92 1013.4
20260903233711 85 220 0.0 0.0 0.00 0.00 0.00 92 1013.2
20260903232607 85 220 0.0 0.0 0.00 0.00 0.00 91 1013.0
20260903232033 85 220 0.0 0.0 0.00 0.00 0.00 91 1013.0
20260903231459 85 220 0.0 0.0 0.00 0.00 0.00 91 1012.9
20260903230925 85 220 0.0 0.0 0.00 0.00 0.00 90 1013.0
20260903230351 86 220 0.0 0.0 0.00 0.00 0.00 90 1013.0
20260903225817 86 220 0.0 0.0 0.00 0.00 0.00 90 1012.9
20260903225242 86 220 0.0 0.0 0.00 0.00 0.00 89 1012.9
20260903224708 87 220 0.0 0.0 0.00 0.00 0.00 89 1012.8
20260903223605 87 220 1.0 0.0 0.00 0.00 0.00 86 1012.5
20260903222500 88 220 0.0 0.0 0.00 0.00 0.00 85 1012.6
20260903221926 88 220 1.0 0.0 0.00 0.00 0.00 84 1012.5
20260903220822 88 211 1.0 0.0 0.00 0.00 0.00 84 1012.6
20260903215718 88 246 0.0 0.0 0.00 0.00 0.00 86 1012.7
20260903215144 88 246 1.0 0.0 0.00 0.00 0.00 84 1012.7
20260903213510 89 214 0.0 0.0 0.00 0.00 0.00 81 1012.7
20260903212936 89 214 1.0 0.0 0.00 0.00 0.00 80 1012.7
20260903212402 89 233 1.0 0.0 0.00 0.00 0.00 79 1012.8
20260903211258 89 245 1.0 0.0 0.00 0.00 0.00 80 1012.8
20260903210723 89 214 2.0 0.0 0.00 0.00 0.00 79 1012.7
20260903205049 89 237 1.0 0.0 0.00 0.00 0.00 81 1012.8
20260903204515 89 228 1.0 0.0 0.00 0.00 0.00 81 1012.9
20260903203941 89 285 2.0 0.0 0.00 0.00 0.00 80 1012.9
20260903203407 89 245 1.0 0.0 0.00 0.00 0.00 81 1013.1
20260903202833 88 268 0.0 0.0 0.00 0.00 0.00 82 1013.1
20260903202258 88 278 1.0 0.0 0.00 0.00 0.00 81 1013.1
20260903201724 88 243 2.0 0.0 0.00 0.00 0.00 81 1013.2
20260903201150 88 217 2.0 0.0 0.00 0.00 0.00 81 1013.3
20260903200616 88 243 0.0 0.0 0.00 0.00 0.00 82 1013.5
20260903195513 87 243 1.0 0.0 0.00 0.00 0.00 83 1013.5
20260903194938 87 193 0.0 0.0 0.00 0.00 0.00 83 1013.7
20260903193834 86 190 0.0 0.0 0.00 0.00 0.00 86 1013.8
20260903193300 86 175 0.0 0.0 0.00 0.00 0.00 84 1013.9
20260903192726 86 175 0.0 0.0 0.00 0.00 0.00 85 1013.9
20260903191622 86 175 1.0 0.0 0.00 0.00 0.00 86 1014.2
20260903191047 85 226 1.0 0.0 0.00 0.00 0.00 87 1014.4
20260903185944 84 264 0.0 0.0 0.00 0.00 0.00 89 1014.5
20260903185410 84 264 1.0 0.0 0.00 0.00 0.00 89 1014.7
20260903184835 84 264 0.0 0.0 0.00 0.00 0.00 89 1014.6
20260903184301 84 264 0.0 0.0 0.00 0.00 0.00 87 1014.7
20260903183157 84 274 1.0 0.0 0.00 0.05 0.00 87 1014.7
20260903182623 84 276 0.0 0.0 0.00 0.05 0.00 87 1014.7
20260903182049 84 275 0.0 0.0 0.00 0.05 0.00 87 1014.7
20260903175845 83 237 1.0 0.0 0.00 0.05 0.00 85 1015.1
20260903175311 84 228 1.0 0.0 0.00 0.05 0.00 87 1015.2
20260903174737 83 227 0.0 0.0 0.00 0.05 0.00 87 1014.9
20260903174203 84 227 1.0 0.0 0.00 0.05 0.00 87 1015.0
20260903173629 84 227 0.0 0.0 0.00 0.05 0.00 87 1015.2
20260903173055 83 228 0.0 0.0 0.00 0.05 0.00 87 1015.6
20260903171951 83 228 0.0 0.0 0.00 0.05 0.00 89 1016.0
20260903171417 83 228 0.0 0.0 0.00 0.05 0.00 88 1016.1
20260903170313 83 228 0.0 0.0 0.00 0.05 0.00 90 1016.3
20260903165738 82 227 0.0 0.0 0.00 0.05 0.00 90 1016.2
20260903165204 81 228 0.0 0.0 0.00 0.05 0.00 93 1016.3
20260903164630 81 227 0.0 0.0 0.00 0.05 0.00 92 1016.5
20260903164056 81 125 0.0 0.0 0.00 0.05 0.00 92 1016.7
20260903163522 80 90 0.0 0.0 0.00 0.05 0.00 95 1016.6
20260903162418 80 90 0.0 0.0 0.00 0.05 0.00 97 1016.9
20260903161844 80 91 0.0 0.0 0.00 0.05 0.00 97 1017.0
20260903160210 79 212 0.0 0.0 0.00 0.05 0.00 99 1017.3
20260903155636 78 219 1.0 0.0 0.00 0.05 0.00 10 1017.3
20260903155102 78 248 0.0 0.0 0.00 0.05 0.00 10 1017.7
20260903153958 78 248 0.0 0.0 0.00 0.05 0.00 10 1018.0
20260903153424 78 248 0.0 0.0 0.00 0.05 0.00 10 1017.6
20260903152850 78 248 0.0 0.0 0.00 0.05 0.00 10 1016.8
20260903152315 78 248 1.0 0.0 0.00 0.05 0.00 10 1017.0
20260903151211 78 248 0.0 0.0 0.00 0.05 0.00 10 1016.9
20260903150107 77 247 0.0 0.0 0.00 0.05 0.00 10 1016.9
20260903145533 77 247 0.0 0.0 0.00 0.05 0.00 10 1016.8
20260903144959 77 247 1.0 0.0 0.00 0.05 0.00 10 1016.7
20260903144425 77 249 1.0 0.0 0.00 0.05 0.00 10 1016.8
20260903143851 77 242 0.0 0.0 0.00 0.05 0.00 10 1016.7
20260903143317 76 249 0.0 0.0 0.00 0.05 0.00 10 1016.7
20260903142743 76 249 1.0 0.0 0.00 0.05 0.00 10 1016.7
20260903142209 76 249 0.0 0.0 0.00 0.05 0.00 10 1016.6
20260903141635 75 162 0.0 0.0 0.00 0.05 0.00 10 1016.6
20260903141101 75 162 1.0 0.0 0.00 0.05 0.00 10 1016.4
20260903135957 74 170 0.0 0.0 0.00 0.05 0.00 10 1016.4
20260903135423 74 170 0.0 0.0 0.00 0.05 0.00 10 1016.4
20260903134319 73 170 1.0 0.0 0.00 0.05 0.00 10 1016.1
20260903132645 73 164 0.0 0.0 0.00 0.05 0.00 10 1016.5
20260903132110 73 164 1.0 0.0 0.00 0.05 0.00 10 1016.6
20260903131536 73 164 0.0 0.0 0.00 0.05 0.00 10 1016.8
20260903125902 73 274 0.0 0.0 0.00 0.05 0.00 10 1017.4
20260903125328 73 263 0.0 0.0 0.00 0.05 0.00 10 1017.6
20260903124754 72 264 0.0 0.0 0.00 0.05 0.00 10 1017.6
20260903123120 72 270 0.0 0.0 0.00 0.05 0.00 10 1017.8
20260903122016 72 129 0.0 0.0 0.00 0.05 0.00 10 1017.7
20260903120342 72 120 0.0 0.0 0.00 0.05 0.00 10 1018.0
20260903115807 72 297 0.0 0.0 0.00 0.05 0.00 10 1018.0
20260903115233 72 216 1.0 0.0 0.00 0.05 0.00 10 1017.9
20260903114129 72 41 0.0 0.0 0.00 0.05 0.00 10 1017.9
20260903113555 72 52 0.0 0.0 0.00 0.05 0.00 10 1017.9
20260903113021 72 52 0.0 0.0 0.00 0.05 0.00 10 1017.8
20260903111917 72 147 0.0 0.0 0.00 0.05 0.00 10 1017.7
20260903111343 71 147 0.0 0.0 0.00 0.05 0.00 10 1017.4
20260903110239 71 147 0.0 0.0 0.00 0.05 0.00 10 1016.8
20260903105705 71 147 0.0 0.0 0.00 0.05 0.00 10 1016.9
20260903105130 71 146 0.0 0.0 0.00 0.05 0.00 10 1016.7
20260903104556 71 147 0.0 0.0 0.00 0.05 0.00 10 1016.6
20260903101822 71 147 0.0 0.0 0.00 0.05 0.00 10 1015.8
20260903101248 71 147 0.0 0.0 0.00 0.05 0.00 10 1015.8
20260903100714 71 147 0.0 0.0 0.00 0.05 0.00 10 1015.8
20260903095610 71 147 0.0 0.0 0.00 0.05 0.00 10 1015.7
20260903094506 71 147 0.0 0.0 0.00 0.05 0.00 10 1015.8
20260903093932 71 147 0.0 0.0 0.00 0.05 0.00 10 1015.8
20260903092828 71 147 0.0 0.0 0.00 0.05 0.00 10 1016.0
20260903092254 71 147 0.0 0.0 0.00 0.05 0.00 10 1016.0
20260903091720 71 147 0.0 0.0 0.00 0.05 0.00 10 1016.0
20260903090616 71 147 0.0 0.0 0.00 0.05 0.00 10 1015.9
20260903090042 71 147 0.0 0.0 0.00 0.05 0.00 10 1015.9
20260903085507 71 147 0.0 0.0 0.00 0.05 0.00 10 1015.7
20260903084403 71 147 0.0 0.0 0.00 0.05 0.00 10 1015.6
20260903083830 71 147 0.0 0.0 0.00 0.05 0.00 10 1015.7
20260903083255 71 147 0.0 0.0 0.00 0.05 0.00 10 1015.4
20260903082721 71 147 0.0 0.0 0.00 0.05 0.00 10 1015.5
20260903081617 71 147 0.0 0.0 0.00 0.05 0.00 10 1015.8
20260903080513 71 147 0.0 0.0 0.00 0.05 0.00 10 1015.7
20260903075939 71 147 0.0 0.0 0.00 0.05 0.00 10 1015.7
20260903075405 71 147 0.0 0.0 0.00 0.05 0.00 10 1015.7
20260903074301 71 147 0.0 0.0 0.00 0.05 0.00 10 1015.8
20260903073727 71 147 0.0 0.0 0.00 0.05 0.00 10 1015.8
20260903073153 71 147 1.0 0.0 0.00 0.05 0.00 10 1015.8
20260903072619 71 147 0.0 0.0 0.00 0.05 0.00 10 1015.7
20260903070945 71 147 0.0 0.0 0.00 0.05 0.00 10 1015.5
20260903065311 71 147 1.0 0.0 0.00 0.05 0.00 10 1015.5
20260903064737 71 143 0.0 0.0 0.00 0.05 0.00 10 1015.6
20260903063633 71 143 0.0 0.0 0.00 0.05 0.00 10 1015.7
20260903063059 71 143 0.0 0.0 0.00 0.05 0.00 10 1015.7
20260903061955 71 143 0.0 0.0 0.00 0.05 0.00 10 1015.5
20260903060851 72 143 0.0 0.0 0.00 0.05 0.00 10 1015.8
20260903060316 72 143 1.0 0.0 0.00 0.05 0.00 10 1015.7
20260903054642 72 110 0.0 0.0 0.00 0.05 0.00 10 1015.9
20260903054108 72 109 0.0 0.0 0.00 0.05 0.00 10 1016.0
20260903053534 72 104 1.0 0.0 0.00 0.05 0.00 10 1016.1
20260903053000 72 104 0.0 0.0 0.00 0.05 0.00 10 1016.0
20260903051856 72 104 1.0 0.0 0.00 0.05 0.00 10 1016.0
20260903051322 72 104 0.0 0.0 0.00 0.05 0.00 10 1016.2
20260903050748 72 104 0.0 0.0 0.00 0.05 0.00 10 1016.1
20260903050214 72 103 0.0 0.0 0.00 0.05 0.00 10 1016.2
20260903045640 72 104 0.0 0.0 0.00 0.05 0.00 10 1016.4
20260903045106 72 104 0.0 0.0 0.00 0.05 0.00 10 1016.5
20260903044532 72 104 0.0 0.0 0.00 0.05 0.00 10 1016.3
20260903043427 72 104 0.0 0.0 0.00 0.05 0.00 10 1016.5
20260903042853 72 104 0.0 0.0 0.00 0.05 0.05 10 1016.5
20260903042318 72 104 0.0 0.0 0.00 0.05 0.05 10 1016.5
20260903041744 72 104 0.0 0.0 0.00 0.05 0.05 10 1016.6
20260903041210 72 104 0.0 0.0 0.00 0.05 0.05 10 1016.6
20260903040636 72 104 0.0 0.0 0.00 0.05 0.05 10 1016.8
20260903035528 72 104 0.0 0.0 0.00 0.05 0.05 10 1016.6
20260903034423 72 104 0.0 0.0 0.00 0.05 0.05 10 1016.5
20260903033849 72 104 0.0 0.0 0.00 0.05 0.05 10 1016.5
20260903033315 72 104 0.0 0.0 0.00 0.05 0.05 10 1016.5
20260903032211 72 104 0.0 0.0 0.00 0.05 0.05 10 1016.8
20260903031637 72 104 0.0 0.0 0.00 0.05 0.05 10 1016.8
20260903031103 72 104 0.0 0.0 0.00 0.05 0.05 10 1016.7
20260903030529 72 104 0.0 0.0 0.00 0.05 0.05 10 1016.6
20260903025955 72 104 0.0 0.0 0.00 0.05 0.05 10 1016.6
20260903025421 72 104 0.0 0.0 0.00 0.05 0.05 10 1016.6
20260903024847 72 104 0.0 0.0 0.00 0.05 0.05 10 1016.6
20260903024313 72 104 0.0 0.0 0.00 0.05 0.05 10 1016.6
20260903022639 72 104 0.0 0.0 0.00 0.05 0.05 10 1016.3
20260903022104 72 104 0.0 0.0 0.00 0.05 0.05 10 1016.2
20260903021531 72 104 0.0 0.0 0.00 0.05 0.05 10 1016.2
20260903020956 72 104 0.0 0.0 0.00 0.05 0.05 10 1016.1
20260903015852 72 104 0.0 0.0 0.00 0.05 0.05 10 1016.0
20260903015319 72 104 0.0 0.0 0.00 0.05 0.05 10 1015.9
20260903014744 72 104 0.0 0.0 0.00 0.05 0.05 10 1015.9
20260903014210 72 104 0.0 0.0 0.00 0.05 0.05 10 1016.0
20260903013636 72 104 0.0 0.0 0.00 0.05 0.05 10 1016.1
20260903013102 72 104 0.0 0.0 0.00 0.05 0.05 10 1016.2
20260903012528 72 103 0.0 0.0 0.00 0.05 0.05 10 1016.3
20260903011424 72 104 0.0 0.0 0.00 0.05 0.05 10 1016.4
20260903010320 72 104 0.0 0.0 0.00 0.05 0.05 10 1016.5
20260903005746 72 104 0.0 0.0 0.00 0.05 0.05 10 1016.5
20260903005212 73 104 0.0 0.0 0.00 0.05 0.05 10 1016.4
20260903004638 73 104 0.0 0.0 0.00 0.05 0.05 10 1016.5
20260903003534 73 104 0.0 0.0 0.00 0.05 0.05 10 1016.4